Pearl, MS

11:29 PM CST on February 20, 2017 (GMT -0600)
Jackson-Evers International

Weather History for KJAN - March, 2014

Change the Weather History Date:

Tuesday, March 25, 2014

  Actual Average Record
Temperature  
Mean Temperature 46 °F 59 °F  
Max Temperature 58 °F 71 °F 89 °F (1907)
Min Temperature 33 °F 47 °F 25 °F (1966)
Degree Days  
Heating Degree Days 19 7  
Month to date heating degree days 297 239  
Since 1 July heating degree days 2563 2231  
Cooling Degree Days 0 1  
Month to date cooling degree days 1 22  
Year to date cooling degree days 7 32  
Moisture  
Dew Point 27 °F    
Average Humidity 50    
Maximum Humidity 76    
Minimum Humidity 23    
Precipitation  
Precipitation 0.00 in 0.17 in 3.40 in (1949)
Month to date precipitation 1.95 4.01  
Year to date precipitation 9.00 13.74  
Sea Level Pressure  
Sea Level Pressure 30.21 in    
Wind  
Wind Speed 9 mph (NNW)    
Max Wind Speed 26 mph    
Max Gust Speed 36 mph    
Visibility 10 miles    
Events      
T = Trace of Precipitation, MM = Missing Value Source: NWS Daily Summary

Daily Weather History Graph

Daily Weather History Graph

Search for Another Location

Airport or City:

Trip Planner

Search our weather history database for the weather conditions in past years. The results will help you decide how hot, cold, wet, or windy it might be!

Date:

Astronomy

Mar. 25, 2014 Rise Set
Actual Time 6:57 AM CDT 7:15 PM CDT
Civil Twilight 6:33 AM CDT 7:39 PM CDT
Nautical Twilight 6:04 AM CDT 8:08 PM CDT
Astronomical Twilight 5:35 AM CDT 8:37 PM CDT
Moon 3:02 AM CDT (3/25) 2:02 PM CDT (3/25)
Length of Visible Light 13h 06m
Length of Day
12h 17m
Waning Crescent, 32% of the Moon is Illuminated
Mar 25
Waning Crescent
Mar 30
New
Apr 7
First Quarter
Apr 15
Full
Apr 22
Last Quarter

Hourly Weather History & Observations

Time (CDT) Temp. Windchill Dew Point Humidity Pressure Visibility Wind Dir Wind Speed Gust Speed Precip Events Conditions
12:54 AM 48.0 °F - 27.0 °F 44% 30.10 in 10.0 mi North 9.2 mph - N/A   Clear
1:54 AM 46.0 °F 42.5 °F 27.0 °F 47% 30.10 in 10.0 mi North 6.9 mph - N/A   Clear
2:54 AM 42.1 °F - 28.9 °F 60% 30.09 in 10.0 mi Calm Calm - N/A   Clear
3:54 AM 42.1 °F - 28.9 °F 60% 30.10 in 10.0 mi Calm Calm - N/A   Clear
4:54 AM 39.0 °F - 30.0 °F 70% 30.11 in 10.0 mi Calm Calm - N/A   Clear
5:54 AM 37.9 °F 35.5 °F 30.0 °F 73% 30.13 in 10.0 mi NNW 3.5 mph - N/A   Clear
6:54 AM 37.9 °F 35.5 °F 30.0 °F 73% 30.15 in 10.0 mi NNW 3.5 mph - N/A   Clear
7:54 AM 42.1 °F 39.2 °F 32.0 °F 67% 30.18 in 10.0 mi NNW 4.6 mph - N/A   Clear
8:54 AM 48.9 °F - 26.1 °F 41% 30.22 in 10.0 mi NNW 12.7 mph - N/A   Clear
9:54 AM 52.0 °F - 26.1 °F 37% 30.25 in 10.0 mi North 21.9 mph 26.5 mph N/A   Clear
10:54 AM 52.0 °F - 30.0 °F 43% 30.28 in 10.0 mi NW 15.0 mph 29.9 mph N/A   Partly Cloudy
11:54 AM 54.0 °F - 24.1 °F 31% 30.28 in 10.0 mi NW 13.8 mph 21.9 mph N/A   Clear
12:54 PM 55.9 °F - 21.9 °F 27% 30.27 in 10.0 mi NNW 19.6 mph 31.1 mph N/A   Clear
1:54 PM 57.0 °F - 19.9 °F 24% 30.25 in 10.0 mi NNW 26.5 mph 33.4 mph N/A   Clear
2:54 PM 55.9 °F - 21.0 °F 26% 30.24 in 10.0 mi North 19.6 mph 28.8 mph N/A   Partly Cloudy
3:54 PM 55.9 °F - 21.9 °F 27% 30.24 in 10.0 mi North 16.1 mph 27.6 mph N/A   Partly Cloudy
4:54 PM 55.9 °F - 24.1 °F 29% 30.22 in 10.0 mi North 25.3 mph 32.2 mph N/A   Partly Cloudy
5:54 PM 54.0 °F - 26.1 °F 34% 30.24 in 10.0 mi North 13.8 mph 24.2 mph N/A   Partly Cloudy
6:54 PM 51.1 °F - 25.0 °F 36% 30.25 in 10.0 mi North 12.7 mph - N/A   Clear
7:54 PM 46.0 °F 43.1 °F 26.1 °F 46% 30.25 in 10.0 mi North 5.8 mph - N/A   Clear
8:54 PM 45.0 °F - 26.1 °F 48% 30.26 in 10.0 mi Calm Calm - N/A   Clear
9:54 PM 37.9 °F - 28.9 °F 70% 30.28 in 10.0 mi Calm Calm - N/A   Clear
10:54 PM 37.0 °F - 28.9 °F 73% 30.29 in 10.0 mi Calm Calm - N/A   Clear
11:54 PM 35.1 °F - 28.9 °F 78% 30.29 in 10.0 mi Calm Calm - N/A   Clear